Hourly Data Report for March 29, 2021

KUGAARUK CLIMATE
NUNAVUT
Current Station Operator: ECCC - MSC

68°32'15.060" N
89°47'47.020" W
15.80 m
2303094
71407
NBB

Download Data

Hourly Data (March 2021)
Hourly Data Report for March 29, 2021
TIME
LST
Temp Definition
°C
Dew Point Definition
°C
Rel Hum Definition
%
Precip. Amount Definition
mm

Wind Dir Definition
10's deg

Wind Spd Definition
km/h
Visibility Definition
km
Stn Press Definition
kPa
Hmdx Definition


Wind Chill Definition


Weather Definition


00:00 -33.3 -37.1 68 0.0 24 21   101.28   -48 LegendNANA
01:00 -33.2 -37.0 69 0.0 24 27   101.25   -49 LegendNANA
02:00 -32.9 -36.6 69 0.0 24 19   101.28   -46 LegendNANA
03:00 -32.8 -36.6 69 0.0 24 22   101.29   -47 LegendNANA
04:00 -32.4 -36.1 69 0.0 23 30   101.25   -49 LegendNANA
05:00 -32.2 -36.0 69 0.0 23 35   101.26   -50 LegendNANA
06:00 -32.7 -37.0 66 0.0 22 25   101.32   -48 LegendNANA
07:00 -32.6 -36.7 67 0.0 23 32   101.29   -49 LegendNANA
08:00 -32.3 -36.6 66 0.0 23 27   101.31   -48 LegendNANA
09:00 -31.7 -36.1 66 0.0 24 32   101.31   -48 LegendNANA
10:00 -31.5 -36.0 65 0.0 25 31   101.30   -48 LegendNANA
11:00 -30.6 -35.0 66 0.0 24 22   101.35   -44 LegendNANA
12:00 -30.5 -35.0 65 0.0 24 25   101.37   -45 LegendNANA
13:00 -29.9 -34.4 65 0.0 25 22   101.36   -44 LegendNANA
14:00 -30.4 -34.6 67 0.0 26 25   101.41   -45 LegendNANA
15:00 -31.1 -34.9 69 0.0 26 32   101.38   -47 LegendNANA
16:00 -31.5 -35.3 69 0.0 26 24   101.37   -46 LegendNANA
17:00 -31.6 -35.2 71 0.0 26 18   101.42   -44 LegendNANA
18:00 -32.4 -35.9 71 0.0 25 18   101.42   -45 LegendNANA
19:00 -33.3 -36.9 70 0.0 24 25   101.40   -49 LegendNANA
20:00 -33.3 -36.8 71 0.0 26 18   101.41   -47 LegendNANA
21:00 -33.3 -36.8 70 0.0 26 24   101.40   -48 LegendNANA
22:00 -33.4 -36.9 71 0.0 26 23   101.40   -48 LegendNANA
23:00 -34.0 -37.4 71 0.0 26 15   101.41   -46 LegendNANA

Notes on Data Quality.

Legend

  • E = Estimated
  • M = Missing
  • NA = Not Available*
  • [empty] = Indicates an unobserved value
Date modified: